IRIDIUM 154

Last updated on Tue Sep 22 2026 00:03:21 GMT+0000 (Coordinated Universal Time)

1 43574U 18061F 26263.81447286 .00000014 00000+0 -22185-5 0 9996 2 43574 86.4011 16.8172 0001963 95.1069 265.0351 14.34217615427110
UTC large
Height (km)
Speed (km/s)
/
Latitude / Longitude
Inclination (degrees)
Orbital Period (minutes)
Azimuth
Elevation
Range (km)
Doppler Factor

Next 0 passes for location: London (51.5072 / 0.1276)

No passes found over London.
IRIDIUM 154